contact:dominique.lefevre@mio.osupytheas.fr, maurice.libes@osupytheas.fr, didier.mallarino@osupytheas.fr
Project:EMSO http://www.emso-fr.org/EMSO-France
Depth: 2436.0 m
Title:EMSO Ligure Ouest : Data MII capteur MICROCAT
DateTime_Computer,Latitude,Longitude,Temperature,Conductivity,Pressure,DateTime_Instrument
DateTime_Computer,Latitude,Longitude,degC,S m-1,dbar,DateTime_Instrument
2021-08-25T00:02:05Z,42.805,6.029,13.2986,4.59999,2470.38,2021-8-25T02:03:24Z
2021-08-25T00:05:08Z,42.805,6.029,13.2986,4.60010,2470.404,2021-8-25T02:06:27Z
2021-08-25T00:08:11Z,42.805,6.029,13.2983,4.60013,2470.39,2021-8-25T02:09:31Z
2021-08-25T00:11:14Z,42.805,6.029,13.2990,4.60007,2470.39,2021-8-25T02:12:34Z
2021-08-25T00:14:18Z,42.805,6.029,13.2986,4.60000,2470.366,2021-8-25T02:15:37Z
2021-08-25T00:17:21Z,42.805,6.029,13.2985,4.60009,2470.343,2021-8-25T02:18:40Z
2021-08-25T00:20:24Z,42.805,6.029,13.2988,4.60003,2470.39,2021-8-25T02:21:43Z
2021-08-25T00:23:27Z,42.805,6.029,13.2986,4.60003,2470.366,2021-8-25T02:24:46Z
2021-08-25T00:26:30Z,42.805,6.029,13.2984,4.60006,2470.366,2021-8-25T02:27:49Z
2021-08-25T00:29:33Z,42.805,6.029,13.2990,4.60014,2470.343,2021-8-25T02:30:52Z
2021-08-25T00:32:36Z,42.805,6.029,13.2990,4.60011,2470.343,2021-8-25T02:33:56Z
2021-08-25T00:35:39Z,42.805,6.029,13.2987,4.60016,2470.366,2021-8-25T02:36:59Z
2021-08-25T00:38:43Z,42.805,6.029,13.2987,4.60015,2470.343,2021-8-25T02:40:02Z
2021-08-25T00:41:46Z,42.805,6.029,13.2989,4.60014,2470.32,2021-8-25T02:43:05Z
2021-08-25T00:44:49Z,42.805,6.029,13.2989,4.60009,2470.343,2021-8-25T02:46:08Z
2021-08-25T00:47:52Z,42.805,6.029,13.2987,4.60003,2470.357,2021-8-25T02:49:11Z
2021-08-25T00:50:55Z,42.805,6.029,13.2986,4.60014,2470.343,2021-8-25T02:52:14Z
2021-08-25T00:53:58Z,42.805,6.029,13.2987,4.60014,2470.343,2021-8-25T02:55:17Z
2021-08-25T00:57:01Z,42.805,6.029,13.2983,4.60009,2470.32,2021-8-25T02:58:21Z
2021-08-25T01:00:04Z,42.805,6.029,13.2990,4.60001,2470.32,2021-8-25T03:01:24Z
2021-08-25T01:03:08Z,42.805,6.029,13.2986,4.60002,2470.343,2021-8-25T03:04:27Z
2021-08-25T01:06:11Z,42.805,6.029,13.2987,4.60019,2470.297,2021-8-25T03:07:30Z
2021-08-25T01:09:14Z,42.805,6.029,13.2986,4.60006,2470.343,2021-8-25T03:10:33Z
2021-08-25T01:12:17Z,42.805,6.029,13.2986,4.60015,2470.32,2021-8-25T03:13:36Z
2021-08-25T01:15:20Z,42.805,6.029,13.2990,4.60007,2470.32,2021-8-25T03:16:39Z
2021-08-25T01:18:23Z,42.805,6.029,13.2991,4.60016,2470.357,2021-8-25T03:19:42Z
2021-08-25T01:21:26Z,42.805,6.029,13.2989,4.60014,2470.32,2021-8-25T03:22:46Z
2021-08-25T01:24:29Z,42.805,6.029,13.2986,4.60010,2470.334,2021-8-25T03:25:49Z
2021-08-25T01:27:33Z,42.805,6.029,13.2984,4.60013,2470.334,2021-8-25T03:28:52Z
2021-08-25T01:30:36Z,42.805,6.029,13.2986,4.60011,2470.334,2021-8-25T03:31:55Z
2021-08-25T01:33:39Z,42.805,6.029,13.2990,4.60017,2470.31,2021-8-25T03:34:58Z
2021-08-25T01:36:42Z,42.805,6.029,13.2986,4.60010,2470.32,2021-8-25T03:38:01Z
2021-08-25T01:39:45Z,42.805,6.029,13.2985,4.60006,2470.31,2021-8-25T03:41:04Z
2021-08-25T01:42:48Z,42.805,6.029,13.2983,4.60004,2470.297,2021-8-25T03:44:07Z
2021-08-25T01:45:51Z,42.805,6.029,13.2987,4.60003,2470.32,2021-8-25T03:47:10Z
2021-08-25T01:48:54Z,42.805,6.029,13.2986,4.60008,2470.306,2021-8-25T03:50:14Z
2021-08-25T01:51:57Z,42.805,6.029,13.2988,4.60009,2470.31,2021-8-25T03:53:17Z
2021-08-25T01:55:01Z,42.805,6.029,13.2990,4.59999,2470.297,2021-8-25T03:56:20Z
2021-08-25T01:58:04Z,42.805,6.029,13.2986,4.59999,2470.273,2021-8-25T03:59:23Z
2021-08-25T02:01:07Z,42.805,6.029,13.2986,4.60001,2470.31,2021-8-25T04:02:26Z
2021-08-25T02:04:10Z,42.805,6.029,13.2985,4.60001,2470.32,2021-8-25T04:05:29Z
2021-08-25T02:07:13Z,42.805,6.029,13.2983,4.60001,2470.297,2021-8-25T04:08:32Z
2021-08-25T02:10:16Z,42.805,6.029,13.2986,4.60011,2470.31,2021-8-25T04:11:35Z
2021-08-25T02:13:19Z,42.805,6.029,13.2986,4.60011,2470.273,2021-8-25T04:14:39Z
2021-08-25T02:16:22Z,42.805,6.029,13.2984,4.60005,2470.31,2021-8-25T04:17:42Z
2021-08-25T02:19:26Z,42.805,6.029,13.2988,4.59999,2470.273,2021-8-25T04:20:45Z
2021-08-25T02:22:29Z,42.805,6.029,13.2986,4.60002,2470.273,2021-8-25T04:23:48Z
2021-08-25T02:25:32Z,42.805,6.029,13.2982,4.60015,2470.287,2021-8-25T04:26:51Z
2021-08-25T02:28:35Z,42.805,6.029,13.2985,4.60007,2470.273,2021-8-25T04:29:54Z
2021-08-25T02:31:38Z,42.805,6.029,13.2985,4.60013,2470.297,2021-8-25T04:32:57Z
2021-08-25T02:34:41Z,42.805,6.029,13.2983,4.60005,2470.297,2021-8-25T04:36:00Z
2021-08-25T02:37:44Z,42.805,6.029,13.2983,4.60005,2470.273,2021-8-25T04:39:04Z
2021-08-25T02:40:47Z,42.805,6.029,13.2984,4.60007,2470.264,2021-8-25T04:42:07Z
2021-08-25T02:43:51Z,42.805,6.029,13.2983,4.60010,2470.273,2021-8-25T04:45:10Z
2021-08-25T02:46:54Z,42.805,6.029,13.2985,4.60008,2470.31,2021-8-25T04:48:14Z
2021-08-25T02:49:58Z,42.805,6.029,13.2986,4.60007,2470.287,2021-8-25T04:51:17Z
2021-08-25T02:53:01Z,42.805,6.029,13.2985,4.60009,2470.26,2021-8-25T04:54:20Z
2021-08-25T02:56:04Z,42.805,6.029,13.2984,4.60010,2470.264,2021-8-25T04:57:23Z
2021-08-25T02:59:07Z,42.805,6.029,13.2983,4.60007,2470.273,2021-8-25T05:00:26Z
2021-08-25T03:02:10Z,42.805,6.029,13.2987,4.60013,2470.297,2021-8-25T05:03:29Z
2021-08-25T03:05:13Z,42.805,6.029,13.2983,4.60005,2470.273,2021-8-25T05:06:32Z
2021-08-25T03:08:16Z,42.805,6.029,13.2990,4.60008,2470.24,2021-8-25T05:09:36Z
2021-08-25T03:11:19Z,42.805,6.029,13.2983,4.60014,2470.25,2021-8-25T05:12:39Z
2021-08-25T03:14:23Z,42.805,6.029,13.2986,4.60007,2470.25,2021-8-25T05:15:42Z
2021-08-25T03:17:26Z,42.805,6.029,13.2986,4.60009,2470.25,2021-8-25T05:18:45Z
2021-08-25T03:20:29Z,42.805,6.029,13.2987,4.60011,2470.25,2021-8-25T05:21:48Z
2021-08-25T03:23:32Z,42.805,6.029,13.2985,4.60005,2470.25,2021-8-25T05:24:51Z
2021-08-25T03:26:35Z,42.805,6.029,13.2984,4.60004,2470.264,2021-8-25T05:27:54Z
2021-08-25T03:29:38Z,42.805,6.029,13.2985,4.60004,2470.273,2021-8-25T05:30:57Z
2021-08-25T03:32:41Z,42.805,6.029,13.2990,4.60006,2470.25,2021-8-25T05:34:01Z
2021-08-25T03:35:44Z,42.805,6.029,13.2983,4.60002,2470.25,2021-8-25T05:37:04Z
2021-08-25T03:38:48Z,42.805,6.029,13.2988,4.60007,2470.25,2021-8-25T05:40:07Z
2021-08-25T03:41:51Z,42.805,6.029,13.2982,4.60006,2470.25,2021-8-25T05:43:10Z
2021-08-25T03:44:54Z,42.805,6.029,13.2985,4.60003,2470.227,2021-8-25T05:46:13Z
2021-08-25T03:47:57Z,42.805,6.029,13.2985,4.60008,2470.264,2021-8-25T05:49:16Z
2021-08-25T03:51:00Z,42.805,6.029,13.2989,4.60007,2470.25,2021-8-25T05:52:19Z
2021-08-25T03:54:03Z,42.805,6.029,13.2983,4.60003,2470.264,2021-8-25T05:55:22Z
2021-08-25T03:57:06Z,42.805,6.029,13.2984,4.60006,2470.25,2021-8-25T05:58:26Z
2021-08-25T04:00:09Z,42.805,6.029,13.2982,4.60006,2470.287,2021-8-25T06:01:29Z
2021-08-25T04:03:13Z,42.805,6.029,13.2983,4.60008,2470.25,2021-8-25T06:04:32Z
2021-08-25T04:06:16Z,42.805,6.029,13.2985,4.60005,2470.25,2021-8-25T06:07:35Z
2021-08-25T04:09:19Z,42.805,6.029,13.2990,4.60010,2470.25,2021-8-25T06:10:38Z
2021-08-25T04:12:22Z,42.805,6.029,13.2986,4.60003,2470.297,2021-8-25T06:13:41Z
2021-08-25T04:15:25Z,42.805,6.029,13.2987,4.60004,2470.273,2021-8-25T06:16:44Z
2021-08-25T04:18:28Z,42.805,6.029,13.2981,4.60005,2470.25,2021-8-25T06:19:47Z
2021-08-25T04:21:31Z,42.805,6.029,13.2983,4.60007,2470.24,2021-8-25T06:22:51Z
2021-08-25T04:24:34Z,42.805,6.029,13.2990,4.60006,2470.25,2021-8-25T06:25:54Z
2021-08-25T04:27:38Z,42.805,6.029,13.2986,4.60011,2470.287,2021-8-25T06:28:57Z
2021-08-25T04:30:41Z,42.805,6.029,13.2985,4.60006,2470.287,2021-8-25T06:32:00Z
2021-08-25T04:33:44Z,42.805,6.029,13.2989,4.60009,2470.25,2021-8-25T06:35:03Z
2021-08-25T04:36:47Z,42.805,6.029,13.2986,4.60007,2470.25,2021-8-25T06:38:06Z
2021-08-25T04:39:50Z,42.805,6.029,13.2985,4.60009,2470.273,2021-8-25T06:41:09Z
2021-08-25T04:42:53Z,42.805,6.029,13.2985,4.60005,2470.264,2021-8-25T06:44:12Z
2021-08-25T04:45:56Z,42.805,6.029,13.2985,4.60006,2470.264,2021-8-25T06:47:16Z
2021-08-25T04:48:59Z,42.805,6.029,13.2986,4.60008,2470.264,2021-8-25T06:50:19Z
2021-08-25T04:52:02Z,42.805,6.029,13.2983,4.60006,2470.287,2021-8-25T06:53:22Z
2021-08-25T04:55:06Z,42.805,6.029,13.2988,4.60006,2470.273,2021-8-25T06:56:25Z
2021-08-25T04:58:09Z,42.805,6.029,13.2988,4.60006,2470.287,2021-8-25T06:59:28Z
2021-08-25T05:01:12Z,42.805,6.029,13.2983,4.60008,2470.273,2021-8-25T07:02:31Z
2021-08-25T05:04:15Z,42.805,6.029,13.2985,4.60010,2470.273,2021-8-25T07:05:34Z
2021-08-25T05:07:18Z,42.805,6.029,13.2986,4.60009,2470.297,2021-8-25T07:08:37Z
2021-08-25T05:10:21Z,42.805,6.029,13.2985,4.60010,2470.25,2021-8-25T07:11:40Z
2021-08-25T05:13:24Z,42.805,6.029,13.2987,4.60005,2470.273,2021-8-25T07:14:44Z
2021-08-25T05:16:27Z,42.805,6.029,13.2990,4.60005,2470.297,2021-8-25T07:17:47Z
2021-08-25T05:19:31Z,42.805,6.029,13.2987,4.60014,2470.31,2021-8-25T07:20:50Z
2021-08-25T05:22:34Z,42.805,6.029,13.2983,4.60006,2470.334,2021-8-25T07:23:53Z
2021-08-25T05:25:37Z,42.805,6.029,13.2986,4.60004,2470.273,2021-8-25T07:26:56Z
2021-08-25T05:28:40Z,42.805,6.029,13.2986,4.60007,2470.287,2021-8-25T07:29:59Z
2021-08-25T05:31:43Z,42.805,6.029,13.2986,4.60005,2470.334,2021-8-25T07:33:02Z
2021-08-25T05:34:46Z,42.805,6.029,13.2988,4.60009,2470.334,2021-8-25T07:36:05Z
2021-08-25T05:58:08Z,42.805,6.029,13.2984,4.60010,2470.32,2021-8-25T07:59:27Z
2021-08-25T06:01:11Z,42.805,6.029,13.2986,4.60007,2470.357,2021-8-25T08:02:30Z
2021-08-25T06:04:14Z,42.805,6.029,13.2989,4.60007,2470.32,2021-8-25T08:05:33Z
2021-08-25T06:07:17Z,42.805,6.029,13.2986,4.60012,2470.334,2021-8-25T08:08:36Z
2021-08-25T06:10:20Z,42.805,6.029,13.2987,4.60011,2470.334,2021-8-25T08:11:40Z
2021-08-25T06:13:23Z,42.805,6.029,13.2987,4.60017,2470.32,2021-8-25T08:14:43Z
2021-08-25T06:16:26Z,42.805,6.029,13.2988,4.60014,2470.32,2021-8-25T08:17:46Z
2021-08-25T06:19:30Z,42.805,6.029,13.2986,4.60009,2470.366,2021-8-25T08:20:49Z
2021-08-25T06:22:33Z,42.805,6.029,13.2990,4.60024,2470.357,2021-8-25T08:23:52Z
2021-08-25T06:25:36Z,42.805,6.029,13.2990,4.60022,2470.343,2021-8-25T08:26:55Z
2021-08-25T06:28:39Z,42.805,6.029,13.2985,4.60026,2470.32,2021-8-25T08:29:58Z
2021-08-25T06:31:42Z,42.805,6.029,13.2988,4.60019,2470.32,2021-8-25T08:33:01Z
2021-08-25T06:34:45Z,42.805,6.029,13.2986,4.60017,2470.32,2021-8-25T08:36:04Z
2021-08-25T06:37:48Z,42.805,6.029,13.2989,4.60004,2470.366,2021-8-25T08:39:08Z
2021-08-25T06:40:51Z,42.805,6.029,13.2987,4.60009,2470.343,2021-8-25T08:42:11Z
2021-08-25T06:43:55Z,42.805,6.029,13.2986,4.60015,2470.38,2021-8-25T08:45:14Z
2021-08-25T06:46:58Z,42.805,6.029,13.2985,4.60006,2470.334,2021-8-25T08:48:17Z
2021-08-25T06:50:01Z,42.805,6.029,13.2982,4.60007,2470.32,2021-8-25T08:51:20Z
2021-08-25T06:53:04Z,42.805,6.029,13.2985,4.60007,2470.38,2021-8-25T08:54:23Z
2021-08-25T06:56:07Z,42.805,6.029,13.2986,4.60003,2470.39,2021-8-25T08:57:26Z
2021-08-25T06:59:10Z,42.805,6.029,13.2989,4.60008,2470.343,2021-8-25T09:00:29Z
2021-08-25T07:02:13Z,42.805,6.029,13.2987,4.60003,2470.38,2021-8-25T09:03:33Z
2021-08-25T07:05:16Z,42.805,6.029,13.2985,4.60011,2470.39,2021-8-25T09:06:36Z
2021-08-25T07:08:20Z,42.805,6.029,13.2982,4.60003,2470.38,2021-8-25T09:09:39Z
2021-08-25T07:11:23Z,42.805,6.029,13.2986,4.60004,2470.39,2021-8-25T09:12:42Z
2021-08-25T07:14:26Z,42.805,6.029,13.2989,4.60004,2470.38,2021-8-25T09:15:45Z
2021-08-25T07:17:29Z,42.805,6.029,13.2982,4.60002,2470.404,2021-8-25T09:18:48Z
2021-08-25T07:20:32Z,42.805,6.029,13.2988,4.60005,2470.366,2021-8-25T09:21:51Z
2021-08-25T07:23:35Z,42.805,6.029,13.2986,4.60009,2470.366,2021-8-25T09:24:54Z
2021-08-25T07:26:38Z,42.805,6.029,13.2984,4.60004,2470.366,2021-8-25T09:27:58Z
2021-08-25T07:29:41Z,42.805,6.029,13.2983,4.60003,2470.38,2021-8-25T09:31:01Z
2021-08-25T07:32:45Z,42.805,6.029,13.2984,4.60003,2470.38,2021-8-25T09:34:04Z
2021-08-25T07:35:48Z,42.805,6.029,13.2986,4.60002,2470.39,2021-8-25T09:37:07Z
2021-08-25T07:38:51Z,42.805,6.029,13.2986,4.60002,2470.404,2021-8-25T09:40:10Z
2021-08-25T07:41:54Z,42.805,6.029,13.2988,4.60001,2470.39,2021-8-25T09:43:13Z
2021-08-25T07:44:57Z,42.805,6.029,13.2982,4.60005,2470.404,2021-8-25T09:46:16Z
2021-08-25T07:48:00Z,42.805,6.029,13.2990,4.60006,2470.39,2021-8-25T09:49:19Z
2021-08-25T07:51:03Z,42.805,6.029,13.2988,4.60003,2470.39,2021-8-25T09:52:23Z
2021-08-25T07:54:06Z,42.805,6.029,13.2984,4.60002,2470.404,2021-8-25T09:55:26Z
2021-08-25T07:57:09Z,42.805,6.029,13.2982,4.60003,2470.39,2021-8-25T09:58:29Z
2021-08-25T08:00:13Z,42.805,6.029,13.2989,4.60003,2470.366,2021-8-25T10:01:32Z
2021-08-25T08:03:16Z,42.805,6.029,13.2983,4.60003,2470.404,2021-8-25T10:04:35Z
2021-08-25T08:06:19Z,42.805,6.029,13.2989,4.60002,2470.39,2021-8-25T10:07:38Z
2021-08-25T08:09:22Z,42.805,6.029,13.2983,4.60005,2470.38,2021-8-25T10:10:41Z
2021-08-25T08:12:25Z,42.805,6.029,13.2988,4.60006,2470.38,2021-8-25T10:13:44Z
2021-08-25T08:15:28Z,42.805,6.029,13.2983,4.60003,2470.39,2021-8-25T10:16:48Z
2021-08-25T08:18:31Z,42.805,6.029,13.2986,4.60002,2470.38,2021-8-25T10:19:51Z
2021-08-25T08:21:34Z,42.805,6.029,13.2988,4.60005,2470.39,2021-8-25T10:22:54Z
2021-08-25T08:24:38Z,42.805,6.029,13.2985,4.60003,2470.39,2021-8-25T10:25:57Z
2021-08-25T08:27:41Z,42.805,6.029,13.2986,4.60005,2470.404,2021-8-25T10:29:00Z
2021-08-25T08:30:44Z,42.805,6.029,13.2984,4.60003,2470.404,2021-8-25T10:32:03Z
2021-08-25T08:33:47Z,42.805,6.029,13.2985,4.60002,2470.427,2021-8-25T10:35:06Z
2021-08-25T08:36:50Z,42.805,6.029,13.2985,4.60006,2470.39,2021-8-25T10:38:09Z
2021-08-25T08:39:53Z,42.805,6.029,13.2987,4.60003,2470.427,2021-8-25T10:41:13Z
2021-08-25T08:42:56Z,42.805,6.029,13.2987,4.60002,2470.427,2021-8-25T10:44:16Z
2021-08-25T08:46:00Z,42.805,6.029,13.2985,4.60004,2470.353,2021-8-25T10:47:19Z
2021-08-25T08:49:03Z,42.805,6.029,13.2984,4.60004,2470.39,2021-8-25T10:50:22Z
2021-08-25T08:52:06Z,42.805,6.029,13.2986,4.60003,2470.39,2021-8-25T10:53:25Z
2021-08-25T08:55:09Z,42.805,6.029,13.2987,4.60002,2470.366,2021-8-25T10:56:28Z
2021-08-25T08:58:12Z,42.805,6.029,13.2989,4.60003,2470.39,2021-8-25T10:59:31Z
2021-08-25T09:01:15Z,42.805,6.029,13.2987,4.60003,2470.404,2021-8-25T11:02:34Z
2021-08-25T09:04:18Z,42.805,6.029,13.2986,4.60010,2470.38,2021-8-25T11:05:38Z
2021-08-25T09:07:21Z,42.805,6.029,13.2985,4.60004,2470.39,2021-8-25T11:08:41Z
2021-08-25T09:10:25Z,42.805,6.029,13.2989,4.60000,2470.404,2021-8-25T11:11:44Z
2021-08-25T09:13:28Z,42.805,6.029,13.2983,4.60003,2470.39,2021-8-25T11:14:47Z
2021-08-25T09:16:31Z,42.805,6.029,13.2981,4.60003,2470.366,2021-8-25T11:17:50Z
2021-08-25T09:19:34Z,42.805,6.029,13.2984,4.60001,2470.413,2021-8-25T11:20:53Z
2021-08-25T09:22:37Z,42.805,6.029,13.2982,4.60001,2470.404,2021-8-25T11:23:56Z
2021-08-25T09:25:40Z,42.805,6.029,13.2989,4.60001,2470.413,2021-8-25T11:26:59Z
2021-08-25T09:28:43Z,42.805,6.029,13.2988,4.60002,2470.404,2021-8-25T11:30:03Z
2021-08-25T09:31:46Z,42.805,6.029,13.2986,4.60003,2470.413,2021-8-25T11:33:06Z
2021-08-25T09:34:50Z,42.805,6.029,13.2988,4.60003,2470.38,2021-8-25T11:36:09Z
2021-08-25T09:37:53Z,42.805,6.029,13.2987,4.60000,2470.38,2021-8-25T11:39:12Z
2021-08-25T09:40:56Z,42.805,6.029,13.2983,4.60003,2470.404,2021-8-25T11:42:15Z
2021-08-25T09:43:59Z,42.805,6.029,13.2982,4.60003,2470.366,2021-8-25T11:45:18Z
2021-08-25T09:47:02Z,42.805,6.029,13.2989,4.60000,2470.38,2021-8-25T11:48:21Z
2021-08-25T09:50:05Z,42.805,6.029,13.2985,4.60001,2470.366,2021-8-25T11:51:24Z
2021-08-25T09:53:08Z,42.805,6.029,13.2983,4.60000,2470.366,2021-8-25T11:54:28Z
2021-08-25T09:56:11Z,42.805,6.029,13.2983,4.60001,2470.366,2021-8-25T11:57:31Z
2021-08-25T09:59:15Z,42.805,6.029,13.2986,4.60001,2470.33,2021-8-25T12:00:34Z
2021-08-25T10:02:18Z,42.805,6.029,13.2983,4.60003,2470.38,2021-8-25T12:03:37Z
2021-08-25T10:05:21Z,42.805,6.029,13.2984,4.60001,2470.376,2021-8-25T12:06:40Z
2021-08-25T10:08:24Z,42.805,6.029,13.2988,4.59999,2470.366,2021-8-25T12:09:43Z
2021-08-25T10:11:27Z,42.805,6.029,13.2988,4.59999,2470.343,2021-8-25T12:12:46Z
2021-08-25T10:14:30Z,42.805,6.029,13.2984,4.60000,2470.38,2021-8-25T12:15:49Z
2021-08-25T10:17:33Z,42.805,6.029,13.2987,4.60003,2470.357,2021-8-25T12:18:53Z
2021-08-25T10:20:36Z,42.805,6.029,13.2984,4.60002,2470.343,2021-8-25T12:21:56Z
2021-08-25T10:23:40Z,42.805,6.029,13.2991,4.60001,2470.334,2021-8-25T12:24:59Z
2021-08-25T10:26:43Z,42.805,6.029,13.2982,4.60001,2470.343,2021-8-25T12:28:02Z
2021-08-25T10:29:46Z,42.805,6.029,13.2986,4.60000,2470.357,2021-8-25T12:31:05Z
2021-08-25T10:32:49Z,42.805,6.029,13.2987,4.60001,2470.357,2021-8-25T12:34:08Z
2021-08-25T10:35:52Z,42.805,6.029,13.2981,4.60001,2470.343,2021-8-25T12:37:11Z
2021-08-25T10:38:55Z,42.805,6.029,13.2990,4.60002,2470.343,2021-8-25T12:40:14Z
2021-08-25T10:41:58Z,42.805,6.029,13.2982,4.59999,2470.38,2021-8-25T12:43:18Z
2021-08-25T10:45:01Z,42.805,6.029,13.2984,4.59999,2470.32,2021-8-25T12:46:21Z
2021-08-25T10:48:05Z,42.805,6.029,13.2983,4.59999,2470.343,2021-8-25T12:49:24Z
2021-08-25T10:51:08Z,42.805,6.029,13.2984,4.60001,2470.32,2021-8-25T12:52:27Z
2021-08-25T10:54:11Z,42.805,6.029,13.2984,4.59999,2470.32,2021-8-25T12:55:30Z
2021-08-25T10:57:14Z,42.805,6.029,13.2984,4.59999,2470.32,2021-8-25T12:58:33Z
2021-08-25T11:00:17Z,42.805,6.029,13.2986,4.59999,2470.334,2021-8-25T13:01:36Z
2021-08-25T11:03:20Z,42.805,6.029,13.2989,4.60003,2470.343,2021-8-25T13:04:40Z
2021-08-25T11:06:23Z,42.805,6.029,13.2988,4.59999,2470.32,2021-8-25T13:07:43Z
2021-08-25T11:09:26Z,42.805,6.029,13.2985,4.59999,2470.297,2021-8-25T13:10:46Z
2021-08-25T11:12:30Z,42.805,6.029,13.2986,4.60000,2470.32,2021-8-25T13:13:49Z
2021-08-25T11:15:33Z,42.805,6.029,13.2985,4.59999,2470.334,2021-8-25T13:16:52Z
2021-08-25T11:18:36Z,42.805,6.029,13.2988,4.60000,2470.32,2021-8-25T13:19:55Z
2021-08-25T11:21:39Z,42.805,6.029,13.2986,4.60001,2470.334,2021-8-25T13:22:58Z
2021-08-25T11:24:42Z,42.805,6.029,13.2986,4.60000,2470.343,2021-8-25T13:26:01Z
2021-08-25T11:27:45Z,42.805,6.029,13.2983,4.60000,2470.283,2021-8-25T13:29:05Z
2021-08-25T11:30:48Z,42.805,6.029,13.2988,4.59999,2470.297,2021-8-25T13:32:08Z
2021-08-25T11:33:52Z,42.805,6.029,13.2985,4.60001,2470.357,2021-8-25T13:35:11Z
2021-08-25T11:36:55Z,42.805,6.029,13.2986,4.60000,2470.297,2021-8-25T13:38:14Z
2021-08-25T11:39:58Z,42.805,6.029,13.2983,4.60002,2470.31,2021-8-25T13:41:17Z
2021-08-25T11:43:01Z,42.805,6.029,13.2986,4.60001,2470.31,2021-8-25T13:44:20Z
2021-08-25T11:46:04Z,42.805,6.029,13.2984,4.60001,2470.273,2021-8-25T13:47:23Z
2021-08-25T11:49:07Z,42.805,6.029,13.2989,4.60001,2470.297,2021-8-25T13:50:26Z
2021-08-25T11:52:10Z,42.805,6.029,13.2989,4.60000,2470.273,2021-8-25T13:53:30Z
2021-08-25T11:55:13Z,42.805,6.029,13.2990,4.60000,2470.287,2021-8-25T13:56:33Z
2021-08-25T11:58:17Z,42.805,6.029,13.2986,4.59999,2470.297,2021-8-25T13:59:36Z
2021-08-25T12:01:20Z,42.805,6.029,13.2988,4.60002,2470.32,2021-8-25T14:02:39Z
2021-08-25T12:04:23Z,42.805,6.029,13.2986,4.60003,2470.297,2021-8-25T14:05:42Z
2021-08-25T12:07:26Z,42.805,6.029,13.2986,4.60002,2470.273,2021-8-25T14:08:45Z
2021-08-25T12:10:29Z,42.805,6.029,13.2986,4.60001,2470.31,2021-8-25T14:11:48Z
2021-08-25T12:13:32Z,42.805,6.029,13.2987,4.60003,2470.25,2021-8-25T14:14:51Z
2021-08-25T12:16:35Z,42.805,6.029,13.2986,4.60001,2470.297,2021-8-25T14:17:55Z
2021-08-25T12:19:38Z,42.805,6.029,13.2988,4.60001,2470.297,2021-8-25T14:20:58Z
2021-08-25T12:22:42Z,42.805,6.029,13.2990,4.60001,2470.297,2021-8-25T14:24:01Z
2021-08-25T12:25:45Z,42.805,6.029,13.2989,4.60000,2470.25,2021-8-25T14:27:04Z
2021-08-25T12:28:48Z,42.805,6.029,13.2988,4.59999,2470.25,2021-8-25T14:30:07Z
2021-08-25T12:31:51Z,42.805,6.029,13.2985,4.60001,2470.31,2021-8-25T14:33:10Z
2021-08-25T12:34:54Z,42.805,6.029,13.2984,4.59999,2470.287,2021-8-25T14:36:13Z
2021-08-25T12:37:57Z,42.805,6.029,13.2982,4.59999,2470.273,2021-8-25T14:39:17Z
2021-08-25T12:41:00Z,42.805,6.029,13.2986,4.59999,2470.273,2021-8-25T14:42:20Z
2021-08-25T12:44:03Z,42.805,6.029,13.2984,4.59999,2470.264,2021-8-25T14:45:23Z
2021-08-25T12:47:07Z,42.805,6.029,13.2982,4.59999,2470.25,2021-8-25T14:48:26Z
2021-08-25T12:50:10Z,42.805,6.029,13.2985,4.59999,2470.264,2021-8-25T14:51:29Z
2021-08-25T12:53:13Z,42.805,6.029,13.2986,4.59999,2470.25,2021-8-25T14:54:32Z
2021-08-25T12:56:16Z,42.805,6.029,13.2985,4.59999,2470.25,2021-8-25T14:57:35Z
2021-08-25T12:59:19Z,42.805,6.029,13.2985,4.59999,2470.264,2021-8-25T15:00:38Z
2021-08-25T13:02:22Z,42.805,6.029,13.2982,4.60001,2470.287,2021-8-25T15:03:42Z
2021-08-25T13:05:25Z,42.805,6.029,13.2985,4.59999,2470.236,2021-8-25T15:06:45Z
2021-08-25T13:08:28Z,42.805,6.029,13.2983,4.59999,2470.227,2021-8-25T15:09:48Z
2021-08-25T13:11:32Z,42.805,6.029,13.2983,4.59999,2470.227,2021-8-25T15:12:51Z
2021-08-25T13:14:35Z,42.805,6.029,13.2989,4.60000,2470.264,2021-8-25T15:15:54Z
2021-08-25T13:17:38Z,42.805,6.029,13.2982,4.60000,2470.227,2021-8-25T15:18:57Z
2021-08-25T13:20:41Z,42.805,6.029,13.2983,4.59999,2470.227,2021-8-25T15:22:00Z
2021-08-25T13:23:44Z,42.805,6.029,13.2985,4.59999,2470.227,2021-8-25T15:25:03Z
2021-08-25T13:26:47Z,42.805,6.029,13.2983,4.59999,2470.25,2021-8-25T15:28:07Z
2021-08-25T13:29:50Z,42.805,6.029,13.2981,4.59999,2470.25,2021-8-25T15:31:10Z
2021-08-25T13:32:54Z,42.805,6.029,13.2987,4.59999,2470.227,2021-8-25T15:34:13Z
2021-08-25T13:35:57Z,42.805,6.029,13.2985,4.60002,2470.264,2021-8-25T15:37:16Z
2021-08-25T13:39:00Z,42.805,6.029,13.2986,4.60001,2470.203,2021-8-25T15:40:19Z
2021-08-25T13:42:03Z,42.805,6.029,13.2987,4.60000,2470.227,2021-8-25T15:43:22Z
2021-08-25T13:45:06Z,42.805,6.029,13.2987,4.59999,2470.227,2021-8-25T15:46:25Z
2021-08-25T13:48:09Z,42.805,6.029,13.2987,4.60000,2470.25,2021-8-25T15:49:28Z
2021-08-25T13:51:12Z,42.805,6.029,13.2982,4.59999,2470.227,2021-8-25T15:52:32Z
2021-08-25T13:54:15Z,42.805,6.029,13.2988,4.60001,2470.203,2021-8-25T15:55:35Z
2021-08-25T13:57:19Z,42.805,6.029,13.2986,4.60000,2470.24,2021-8-25T15:58:38Z
2021-08-25T14:00:22Z,42.805,6.029,13.2984,4.59999,2470.227,2021-8-25T16:01:41Z
2021-08-25T14:03:25Z,42.805,6.029,13.2986,4.60000,2470.24,2021-8-25T16:04:44Z
2021-08-25T14:06:28Z,42.805,6.029,13.2986,4.59998,2470.203,2021-8-25T16:07:47Z
2021-08-25T14:09:31Z,42.805,6.029,13.2983,4.59999,2470.227,2021-8-25T16:10:50Z
2021-08-25T14:12:34Z,42.805,6.029,13.2986,4.59997,2470.203,2021-8-25T16:13:53Z
2021-08-25T14:15:37Z,42.805,6.029,13.2985,4.60003,2470.203,2021-8-25T16:16:57Z
2021-08-25T14:18:40Z,42.805,6.029,13.2988,4.60000,2470.227,2021-8-25T16:20:00Z
2021-08-25T14:21:44Z,42.805,6.029,13.2983,4.60002,2470.227,2021-8-25T16:23:03Z
2021-08-25T14:24:47Z,42.805,6.029,13.2985,4.60001,2470.203,2021-8-25T16:26:06Z
2021-08-25T14:27:50Z,42.805,6.029,13.2987,4.60000,2470.217,2021-8-25T16:29:09Z
2021-08-25T14:30:53Z,42.805,6.029,13.2983,4.60002,2470.18,2021-8-25T16:32:12Z
2021-08-25T14:33:56Z,42.805,6.029,13.2986,4.60001,2470.203,2021-8-25T16:35:15Z
2021-08-25T14:36:59Z,42.805,6.029,13.2989,4.59999,2470.217,2021-8-25T16:38:19Z
2021-08-25T14:40:02Z,42.805,6.029,13.2985,4.60001,2470.18,2021-8-25T16:41:22Z
2021-08-25T14:43:05Z,42.805,6.029,13.2986,4.59999,2470.194,2021-8-25T16:44:25Z
2021-08-25T14:46:09Z,42.805,6.029,13.2983,4.60001,2470.171,2021-8-25T16:47:28Z
2021-08-25T14:49:12Z,42.805,6.029,13.2983,4.60003,2470.171,2021-8-25T16:50:31Z
2021-08-25T14:52:15Z,42.805,6.029,13.2983,4.60000,2470.227,2021-8-25T16:53:34Z
2021-08-25T14:55:18Z,42.805,6.029,13.2986,4.60000,2470.217,2021-8-25T16:56:37Z
2021-08-25T14:58:21Z,42.805,6.029,13.2984,4.60001,2470.227,2021-8-25T16:59:40Z
2021-08-25T15:01:24Z,42.805,6.029,13.2986,4.60001,2470.156,2021-8-25T17:02:44Z
2021-08-25T15:04:27Z,42.805,6.029,13.2985,4.59998,2470.194,2021-8-25T17:05:47Z
2021-08-25T15:07:30Z,42.805,6.029,13.2986,4.60001,2470.18,2021-8-25T17:08:50Z
2021-08-25T15:10:34Z,42.805,6.029,13.2985,4.60001,2470.18,2021-8-25T17:11:53Z
2021-08-25T15:13:37Z,42.805,6.029,13.2985,4.59998,2470.194,2021-8-25T17:14:56Z
2021-08-25T15:16:40Z,42.805,6.029,13.2990,4.60001,2470.194,2021-8-25T17:17:59Z
2021-08-25T15:19:43Z,42.805,6.029,13.2988,4.59998,2470.18,2021-8-25T17:21:02Z
2021-08-25T15:22:46Z,42.805,6.029,13.2988,4.59999,2470.18,2021-8-25T17:24:05Z
2021-08-25T15:25:49Z,42.805,6.029,13.2983,4.59999,2470.156,2021-8-25T17:27:09Z
2021-08-25T15:28:52Z,42.805,6.029,13.2987,4.59999,2470.203,2021-8-25T17:30:12Z
2021-08-25T15:31:55Z,42.805,6.029,13.2990,4.60002,2470.18,2021-8-25T17:33:15Z
2021-08-25T15:34:59Z,42.805,6.029,13.2987,4.60000,2470.194,2021-8-25T17:36:18Z